Regional Weather Roundup
Issued by NWS Bismarck, ND

Home | Current Version | Previous Version | Text Only | Print | Product List | Glossary On
Versions: 1 2 3 4 5 6 7 8 9 10 11 12 13 14 15 16 17 18 19 20 21 22 23 24 25 26 27 28 29 30 31 32 33 34 35 36 37 38 39 40 41 42 43 44 45 46 47 48 49 50
000
ASUS43 KBIS 021110
RWRBIS

NWR BROADCAST TEXT
NATIONAL WEATHER SERVICE BISMARCK ND
600 AM CDT SUN AUG 02 2015

NOTE: "FAIR" INDICATES FEW OR NO CLOUDS BELOW 12,000 FEET WITH NO
SIGNIFICANT WEATHER AND/OR OBSTRUCTIONS TO VISIBILITY.


CITY           SKY/WX    TMP DP  RH WIND       PRES   REMARKS
WILLISTON      CLEAR     56  50  80 CALM      29.94R
MINOT          CLEAR     59  54  83 W9        29.86R
MINOT AFB      CLEAR     59  57  92 NW8       29.85R
BISMARCK       CLEAR     62  55  77 NW7       29.84R
DICKINSON      CLEAR     53  50  89 NW6       29.91R
GARRISON         N/A     58  55  90 N9        29.86R
HETTINGER ARPT CLEAR     51  48  89 NW7       29.93R
JAMESTOWN      PTCLDY    61  58  90 N7        29.73R
CROSBY         FAIR      54  54 100 NW8       29.94R
HARVEY         FAIR      57  57 100 NW10      29.81R
HAZEN          FAIR      57  55  94 W5        29.88R
LINTON         FAIR      57  57 100 W5        29.82R
OAKES            N/A     64  59  82 NW16G23   29.68R
STANLEY        FAIR      57  57 100 NW8       29.92R
$$

CITY           SKY/WX    TMP DP  RH WIND       PRES   REMARKS
GRAND FORKS    MOCLDY    62  60  93 NW8       29.69R
GRAND FORKS AF MOCLDY    62  59  90 NW12      29.70R
DEVILS LAKE    CLEAR     61  54  77 NW8       29.76R
FARGO          CLEAR     66  63  90 N10       29.61S
CAVALIER       PTSUNNY   61  59  94 N8        29.72R
GRAFTON        FAIR      61  61 100 NW9       29.71R
GWINNER        FAIR      66  57  72 W16G23    29.66R
LANGDON        FAIR      57  55  94 NW7       29.77R
ROLLA          FAIR      55  55 100 NW12      29.82R
WALHALLA       FAIR      63  63 100 MISG      29.74R
$$

CITY           SKY/WX    TMP DP  RH WIND       PRES   REMARKS
ABERDEEN       CLEAR     68  53  58 NW13      29.69S
MOBRIDGE       CLEAR     68  57  68 N16G25    29.78R
BUFFALO          N/A     61  50  67 N9        29.90R
RAPID CITY     CLEAR     68  55  63 NW9       29.91R
GLASGOW        CLEAR     58  51  78 NW6       29.99R
SIDNEY         CLEAR     55  50  82 CALM      29.95R
WOLF POINT     PTCLDY    55  51  86 CALM      29.97R
GLENDIVE         N/A    N/A N/A N/A MISG        N/A
MILES CITY     CLEAR     62  53  72 NE8       29.95R
BAKER          CLEAR     62  52  69 CALM      29.96R
$$

CITY           SKY/WX    TMP DP  RH WIND       PRES   REMARKS
BILLINGS       PTCLDY    64  36  35 W7        29.96S
GREAT FALLS    CLEAR     54  45  71 SW5       30.03R
REGINA         PTCLDY    52  52 100 NW7       29.96R
ESTEVAN        CLEAR     50  50 100 W7        29.91R
$$



USA.gov is the U.S. government's official web portal to all federal, state and local government web resources and services.